Meteopurmerend
purmerend
Purmerend - Baaienwijk



My webcam  My webcam


Onweer radar Meer informatie blitzortung!


Regen radar Meer informatie rain snow radar


Bezoek onze andere website:

CandyAppleRed WebdesignWebdesign Purmerend Candy Apple Red

MeteopurmerendBlog

Template documentation
and downloads



Het weer levert geen direct gevaar op.    Er zijn geen waarschuwingen afgegeven.

15 daagse weersverwachting Braga (PT)

  • Overzicht
  • Per uur
  • 15 dagen
  • Extra
  • Vergelijk
  • Kaarten
  • Dagkaart
  • Meer »
  • Info
  • Statistieken
  • Directe link
    Temp 6h Neerslag Wind  
 07:20     19:34    Daglengte: 12:14 Vandaag
19:00
20°
 
2
 07:21     19:33    Daglengte: 12:12 Morgen
01:00
17°
 
2
07:00
18°
4.0 mm
3
13:00
18°
11.1 mm
4
19:00
16°
17.0 mm
2
 07:22     19:31    Daglengte: 12:09 Zondag 22 Sep
01:00
15°
12.4 mm
3
07:00
14°
8.6 mm
2
13:00
18°
16.3 mm
3
19:00
17°
11.0 mm
2
 07:23     19:29    Daglengte: 12:06 Maandag 23 Sep
01:00
14°
 
1
07:00
14°
 
2
13:00
19°
18.5 mm
5
Locatie info
Region: Braga
Latitude: 41.5516°N
Longitude: -8.4291°E
188 masl
Postcode: 4700-442
Temp/Neerslag /Baro Onweer/Dauwpunt
    Temp Baro 1h Neerslag Dauwpunt Wind UV Bewolking  
 07:20     19:34    Daglengte: 12:14 Vandaag
16:00
21°
1012.3 hPa
11%
14.8°
3
Windvlaag: 1.8 m/s
39%
17:00
21°
1012.0 hPa   14.8°
3
Windvlaag: 2 m/s
17%
18:00
20°
1011.9 hPa   14.1°
2
Windvlaag: 1.7 m/s
25%
19:00
20°
1011.7 hPa   14.1°
2
Windvlaag: 1.5 m/s
13%
20:00
19°
1011.7 hPa   14.4°
1
Windvlaag: 1.3 m/s
17%
21:00
18°
1011.7 hPa   14.5°
1
Windvlaag: 1 m/s
20%
22:00
17°
1011.6 hPa   14.0°
1
Windvlaag: 0.6 m/s
19%
23:00
17°
1011.2 hPa   13.6°
1
Windvlaag: 1 m/s
31%
 07:21     19:33    Daglengte: 12:12 Morgen
00:00
17°
1010.8 hPa   13.8°
2
Windvlaag: 0.7 m/s
55%
01:00
17°
1010.3 hPa
30%
14.3°
2
Windvlaag: 0.9 m/s
49%
02:00
17°
1009.8 hPa
34%
14.4°
2
Windvlaag: 2.7 m/s
88%
03:00
18°
1009.2 hPa 0.3 mm
79%
14.7°
3
Windvlaag: 3.4 m/s
91%
04:00
18°
1008.7 hPa 0.3 mm
82%
14.9°
3
Windvlaag: 3 m/s
90%
05:00
18°
1008.4 hPa
82%
15.5°
3
Windvlaag: 3.1 m/s
90%
06:00
18°
1008.0 hPa 1.2 mm
82%
15.8°
3
Windvlaag: 3.2 m/s
91%
07:00
18°
1008.0 hPa 2.2 mm
82%
16.3°
3
Windvlaag: 3.2 m/s
91%
08:00
18°
1008.2 hPa 2.0 mm
82%
16.4°
3
Windvlaag: 3.3 m/s
90%
09:00
18°
1008.1 hPa 2.2 mm
82%
16.7°
3
Windvlaag: 3.3 m/s
90%
10:00
18°
1008.3 hPa 2.7 mm
82%
16.7°
3
Windvlaag: 2.9 m/s
89%
11:00
18°
1008.2 hPa 1.7 mm
82%
16.7°
4
Windvlaag: 4 m/s
86%
12:00
18°
1008.1 hPa 1.1 mm
82%
16.6°
4
Windvlaag: 3.8 m/s
90%
13:00
18°
1007.9 hPa 1.5 mm
82%
16.3°
4
Windvlaag: 3.6 m/s
90%
14:00
18°
1007.9 hPa 2.2 mm
80%
16.7°
4
Windvlaag: 4.3 m/s
85%
15:00
18°
1007.3 hPa 2.6 mm
82%
16.7°
4
Windvlaag: 4.9 m/s
81%
16:00
18°
1007.0 hPa 2.8 mm
81%
16.9°
5
Windvlaag: 4.2 m/s
82%
17:00
17°
1006.8 hPa 3.4 mm
82%
16.4°
6
Windvlaag: 6.5 m/s
85%
18:00
16°
1007.5 hPa 2.8 mm
82%
15.7°
3
Windvlaag: 5.8 m/s
69%
19:00
16°
1008.4 hPa 3.1 mm
82%
14.6°
2
Windvlaag: 2.8 m/s
54%
20:00
16°
1008.9 hPa 2.6 mm
82%
13.8°
2
Windvlaag: 2.3 m/s
39%
21:00
15°
1009.8 hPa
69%
14.1°
2
Windvlaag: 2.5 m/s
53%
22:00
15°
1010.5 hPa 2.7 mm
27%
13.9°
2
Windvlaag: 2.7 m/s
54%
23:00
15°
1010.8 hPa 2.7 mm
78%
14.2°
3
Windvlaag: 2.5 m/s
56%
 07:22     19:31    Daglengte: 12:09 Zondag 22 Sep
00:00
15°
1011.1 hPa 2.3 mm
82%
14.2°
3
Windvlaag: 3 m/s
68%
01:00
15°
1011.2 hPa 2.1 mm
82%
14.2°
3
Windvlaag: 2.1 m/s
58%
02:00
15°
1011.7 hPa 3.0 mm
82%
14.1°
3
Windvlaag: 2 m/s
49%
03:00
15°
1011.9 hPa 2.8 mm
82%
14.0°
3
Windvlaag: 1.7 m/s
38%
04:00
15°
1012.0 hPa 2.8 mm
82%
13.8°
2
Windvlaag: 2 m/s
47%
05:00
15°
1012.5 hPa
82%
13.7°
2
Windvlaag: 2 m/s
31%
06:00
14°
1013.1 hPa
81%
13.8°
2
Windvlaag: 1.8 m/s
45%
07:00
14°
1013.8 hPa
38%
13.6°
2
Windvlaag: 1.4 m/s
38%
08:00
14°
1014.4 hPa 2.7 mm
82%
13.0°
2
Windvlaag: 1.8 m/s
43%
09:00
15°
1015.1 hPa 2.7 mm
82%
13.4°
2
Windvlaag: 1.8 m/s
53%
10:00
16°
1015.5 hPa 2.8 mm
100%
13.1°
2
Windvlaag: 2.1 m/s
67%
11:00
17°
1016.1 hPa 3.0 mm
100%
12.8°
3
Windvlaag: 2.3 m/s
63%
12:00
17°
1016.3 hPa 3.0 mm
100%
12.8°
3
Windvlaag: 2.4 m/s
71%
13:00
18°
1016.4 hPa 2.2 mm
100%
12.8°
3
Windvlaag: 1.7 m/s
59%
14:00
18°
1016.7 hPa 2.8 mm
100%
13.4°
4
Windvlaag: 1.3 m/s
69%
15:00
18°
1016.7 hPa
100%
13.4°
3
Windvlaag: 1.3 m/s
76%
16:00
18°
1016.8 hPa 2.7 mm
100%
13.3°
3
Windvlaag: 1 m/s
66%
17:00
18°
1017.0 hPa 2.8 mm
100%
13.0°
3
Windvlaag: 1.2 m/s
60%
18:00
17°
1017.4 hPa 2.7 mm
100%
12.9°
3
Windvlaag: 1 m/s
73%
19:00
17°
1017.9 hPa
100%
13.0°
2
Windvlaag: 1.1 m/s
32%
20:00
15°
1018.4 hPa
100%
13.6°
2
Windvlaag: 1.2 m/s
73%
21:00
15°
1018.9 hPa
93%
13.5°
1
Windvlaag: 1.5 m/s
78%
22:00
15°
1019.4 hPa
84%
13.3°
1
Windvlaag: 1.5 m/s
91%
23:00
14°
1019.7 hPa
78%
13.2°
1
Windvlaag: 1.1 m/s
86%
 07:23     19:29    Daglengte: 12:06 Maandag 23 Sep
00:00
14°
1019.6 hPa
39%
13.0°
1
Windvlaag: 0.9 m/s
88%
01:00
14°
1019.6 hPa
97%
12.8°
1
Windvlaag: 0.9 m/s
89%
02:00
14°
1019.4 hPa
97%
12.4°
2
Windvlaag: 0.7 m/s
74%
03:00
14°
1019.4 hPa
92%
12.3°
1
Windvlaag: 0.8 m/s
82%
04:00
14°
1019.0 hPa
45%
12.3°
2
Windvlaag: 0.8 m/s
89%
05:00
14°
1018.9 hPa
100%
12.3°
2
Windvlaag: 1.1 m/s
97%
06:00
14°
1019.1 hPa
94%
12.1°
2
Windvlaag: 1.1 m/s
94%
07:00
14°
1019.4 hPa
90%
12.2°
2
Windvlaag: 1.5 m/s
92%
08:00
15°
1019.5 hPa
97%
12.4°
2
Windvlaag: 3.4 m/s
95%
09:00
16°
1019.7 hPa 5.1 mm
100%
12.4°
3
Windvlaag: 6.1 m/s
94%
10:00
17°
1019.9 hPa 4.5 mm
100%
12.6°
3
Windvlaag: 5.9 m/s
91%
11:00
18°
1020.0 hPa 4.5 mm
100%
12.7°
4
Windvlaag: 6.5 m/s
92%
12:00
19°
1020.1 hPa 4.4 mm
98%
12.7°
4
Windvlaag: 7 m/s
91%
13:00
19°
1020.1 hPa
100%
12.7°
5
Windvlaag: 1.1 m/s
95%
14:00
19°
1019.9 hPa 13.0 mm
100%
13.6°
5
Windvlaag: 8 m/s
94%
15:00
19°
1019.7 hPa 13.0 mm
100%
14.1°
5
Windvlaag: 8.7 m/s
90%
Temp/Neerslag /Baro Onweer/Dauwpunt
    Temp Baro Neerslag Dauwpunt Wind Bewolking  
 07:20     19:34    Daglengte: 12:14 Vandaag
16:00
21°
1012.3 hPa   14.8°
3
39%
19:00
20°
1011.7 hPa   14.1°
2
13%
22:00
17°
1011.6 hPa   14.0°
1
19%
 07:21     19:33    Daglengte: 12:12 Morgen
01:00
17°
1010.3 hPa   14.3°
2
49%
04:00
18°
1008.7 hPa 0.6 mm 14.9°
3
90%
07:00
18°
1008.0 hPa 3.4 mm 16.3°
3
91%
10:00
18°
1008.3 hPa 6.9 mm 16.7°
3
89%
13:00
18°
1007.9 hPa 4.2 mm 16.3°
4
90%
16:00
18°
1007.0 hPa 7.6 mm 16.9°
5
82%
19:00
16°
1008.4 hPa 9.3 mm 14.6°
2
54%
22:00
15°
1010.5 hPa 5.3 mm 13.9°
2
54%
 07:22     19:31    Daglengte: 12:09 Zondag 22 Sep
01:00
15°
1011.2 hPa 7.1 mm 14.2°
3
58%
04:00
15°
1012.0 hPa 8.6 mm 13.8°
2
47%
07:00
14°
1013.8 hPa   13.6°
2
38%
10:00
16°
1015.5 hPa 8.2 mm 13.1°
2
67%
13:00
18°
1016.4 hPa 8.1 mm 12.8°
3
59%
16:00
18°
1016.8 hPa 5.5 mm 13.3°
3
66%
19:00
17°
1017.9 hPa 5.5 mm 13.0°
2
32%
22:00
15°
1019.4 hPa   13.3°
1
91%
 07:23     19:29    Daglengte: 12:06 Maandag 23 Sep
01:00
14°
1019.6 hPa   12.8°
1
89%
04:00
14°
1019.0 hPa   12.3°
2
89%
07:00
14°
1019.4 hPa   12.2°
2
92%
10:00
17°
1019.9 hPa 9.5 mm 12.6°
3
91%
13:00
19°
1020.1 hPa 8.9 mm 12.7°
5
95%
16:00
19°
1019.5 hPa 39.0 mm 14.5°
4
91%
19:00
18°
1018.9 hPa 39.0 mm 15.5°
3
99%
22:00
17°
1018.4 hPa 21.2 mm 16.1°
4
92%
 07:24     19:27    Daglengte: 12:03 Dinsdag 24 Sep
01:00
17°
1018.0 hPa 22.6 mm 16.3°
5
92%
04:00
17°
1016.9 hPa 27.1 mm 16.8°
5
92%
07:00
18°
1015.8 hPa 31.9 mm 17.2°
5
92%
10:00
19°
1016.6 hPa 32.8 mm 17.2°
4
75%
13:00
20°
1017.3 hPa 34.1 mm 17.1°
3
58%
16:00
19°
1017.6 hPa 34.5 mm 14.9°
3
35%
19:00
17°
1017.8 hPa 34.5 mm 12.8°
3
12%
22:00
15°
1018.5 hPa 34.5 mm 12.5°
2
29%
 07:25     19:26    Daglengte: 12:01 Woensdag 25 Sep
01:00
13°
1018.9 hPa 34.5 mm 12.0°
1
45%
04:00
13°
1018.8 hPa 34.5 mm 12.0°
1
44%
07:00
13°
1018.7 hPa 34.5 mm 12.1°
1
44%
10:00
16°
1019.2 hPa 34.5 mm 12.1°
2
67%
13:00
18°
1019.6 hPa 34.5 mm 11.3°
3
91%
16:00
18°
1019.1 hPa 34.5 mm 11.9°
3
81%
19:00
16°
1018.7 hPa 34.5 mm 12.3°
2
72%
22:00
15°
1019.1 hPa 34.5 mm 12.3°
1
71%
 07:26     19:24    Daglengte: 11:58 Donderdag 26 Sep
01:00
13°
1019.3 hPa 34.5 mm 12.2°
0
71%
04:00
12°
1019.1 hPa 34.5 mm 11.5°
1
53%
07:00
12°
1018.9 hPa 34.5 mm 10.9°
1
35%
10:00
16°
1019.2 hPa 34.5 mm 12.2°
2
61%
13:00
19°
1019.4 hPa 34.5 mm 12.7°
2
86%
16:00
18°
1018.9 hPa 34.5 mm 13.4°
2
54%
19:00
17°
1018.6 hPa 34.5 mm 13.8°
2
23%
22:00
16°
1019.1 hPa 34.5 mm 13.8°
2
57%
 07:27     19:22    Daglengte: 11:55 Vrijdag 27 Sep
01:00
14°
1019.5 hPa 34.5 mm 13.8°
2
92%
04:00
15°
1019.2 hPa 34.5 mm 13.6°
2
91%
07:00
15°
1018.8 hPa 34.5 mm 13.3°
2
91%
10:00
17°
1019.2 hPa 34.5 mm 13.7°
2
91%
13:00
19°
1019.5 hPa 69.1 mm 13.9°
3
92%
19:00
17°
1019.4 hPa 69.1 mm 14.0°
2
90%
 07:28     19:21    Daglengte: 11:53 Zaterdag 28 Sep
01:00
12°
1020.8 hPa 69.1 mm 12.2°
1
90%
07:00
10°
1020.0 hPa 69.1 mm 10.8°
1
92%
13:00
18°
1020.3 hPa 69.1 mm 10.9°
2
91%
19:00
15°
1019.2 hPa 69.1 mm 13.2°
1
89%
 07:29     19:19    Daglengte: 11:50 Zondag 29 Sep
01:00
10°
1018.9 hPa 69.1 mm 10.1°
1
92%
07:00
11°
1018.0 hPa 69.1 mm 10.6°
2
92%
13:00
20°
1017.7 hPa 69.1 mm 11.0°
2
41%
19:00
17°
1016.2 hPa 69.1 mm 12.4°
1
47%
 07:31     19:17    Daglengte: 11:46 Maandag 30 Sep
01:00
16°
1016.4 hPa 69.1 mm 12.2°
3
92%
07:00
14°
1019.9 hPa 69.1 mm 6.5°
2
1%
13:00
18°
1019.0 hPa 0.8 mm 12.2°
1
42%
19:00
16°
1018.4 hPa 0.8 mm 12.5°
2
37%
 07:32     19:15    Daglengte: 11:43 Dinsdag 01 Okt
01:00
14°
1019.9 hPa 0.7 mm 11.7°
1
39%
07:00
13°
1019.5 hPa 0.3 mm 11.0°
1
36%
13:00
19°
1020.4 hPa 0.4 mm 12.3°
1
26%
19:00
17°
1019.4 hPa 0.3 mm 12.5°
3
21%
 07:33     19:14    Daglengte: 11:41 Woensdag 02 Okt
01:00
14°
1020.4 hPa   11.6°
2
23%
07:00
14°
1019.6 hPa 0.5 mm 10.7°
2
25%
13:00
20°
1020.0 hPa   11.5°
1
19%
19:00
17°
1018.6 hPa   12.1°
2
14%
 07:34     19:12    Daglengte: 11:38 Donderdag 03 Okt
01:00
15°
1019.4 hPa   11.1°
2
18%
07:00
14°
1018.4 hPa   10.4°
2
18%
13:00
20°
1018.5 hPa   11.8°
0
20%
19:00
17°
1017.1 hPa 0.2 mm 12.2°
2
18%
 07:35     19:10    Daglengte: 11:35 Vrijdag 04 Okt
01:00
15°
1018.1 hPa   10.7°
1
23%
07:00
14°
1017.4 hPa 0.2 mm 10.3°
2
37%
13:00
19°
1017.8 hPa 0.8 mm 12.0°
0
44%
19:00
17°
1016.4 hPa 0.4 mm 12.1°
2
42%
 07:36     19:09    Daglengte: 11:33 Zaterdag 05 Okt
01:00
15°
1017.1 hPa 0.5 mm 11.3°
1
43%
07:00
14°
1016.1 hPa 0.5 mm 10.7°
1
45%
13:00
19°
1016.3 hPa 0.6 mm 12.3°
0
38%
  CAPE Lifted Index Hail Supercell Tornado SRH 3km CL BTM PRES CL TOP PRES Swiss DWD icon SMHI TS
 07:20     19:34    Daglengte: 12:14 Vandaag
16:00 0 J/kg 1.5 K 0 % 0 % 0 % 0 m²/s² 0 0 2.13 2
17:00 0 J/kg 2.1 K 0 % 0 % 0 % 0 m²/s² 0 0 2.82 3
18:00 0 J/kg 2.7 K 0 % 0 % 0 % 0 m²/s² 0 0 3.66 3
19:00 0 J/kg 2.2 K 0 % 0 % 0 % 0 m²/s² 0 0 3.31 2
20:00 0 J/kg 2.1 K 0 % 0 % 0 % 0 m²/s² 0 0 3.66 2
21:00 0 J/kg 2.1 K 0 % 0 % 0 % 0 m²/s² 0 0 4.41 3
22:00 0 J/kg 2.7 K 0 % 0 % 0 % 0 m²/s² 0 0 5.73 2
23:00 0 J/kg 2.5 K 0 % 0 % 0 % 0 m²/s² 0 0 5.53 3
 07:21     19:33    Daglengte: 12:12 Morgen
00:00 0 J/kg 1.6 K 0 % 0 % 0 % 0 m²/s² 0 0 5.14 3
01:00 0 J/kg 2.1 K 0 % 0 % 0 % 0 m²/s² 0 0 5.28 2
02:00 0 J/kg 1.8 K 0 % 0 % 0 % 0 m²/s² 0 0 4.65 3
03:00 0 J/kg 1.3 K 0 % 0 % 0 % 0 m²/s² 0 0 3.91 3
04:00 49 J/kg 1.5 K 0 % 0 % 0 % 0 m²/s² 0 0 5.04 80
05:00 109 J/kg 1.8 K 0 % 0 % 0 % 0 m²/s² 0 0 3.9 3
06:00 103 J/kg 1.0 K 0 % 0 % 0 % 0 m²/s² 0 0 1.45 61
07:00 101 J/kg 1.2 K 0 % 0 % 0 % 0 m²/s² 0 0 1.29 63
08:00 60 J/kg 1.9 K 0 % 0 % 0 % 0 m²/s² 0 0 1.99 61
09:00 22 J/kg 2.3 K 0 % 0 % 0 % 0 m²/s² 0 0 2.42 61
10:00 57 J/kg 2.0 K 0 % 0 % 0 % 0 m²/s² 0 0 2.48 61
11:00 26 J/kg 3.1 K 0 % 0 % 0 % 0 m²/s² 0 0 3.97 80
12:00 5 J/kg 2.6 K 0 % 0 % 0 % 0 m²/s² 0 0 2.6 80
13:00 11 J/kg 2.7 K 0 % 0 % 0 % 0 m²/s² 0 0 2.7 80
14:00 3 J/kg 2.0 K 0 % 0 % 0 % 0 m²/s² 0 0 2 80
15:00 14 J/kg 0.7 K 0 % 0 % 0 % 0 m²/s² 0 0 0.7 3
16:00 7 J/kg 0.1 K 0 % 0 % 0 % 0 m²/s² 0 0 0.22 80
17:00 36 J/kg 1.3 K 0 % 0 % 0 % 0 m²/s² 0 0 1.3 80
18:00 35 J/kg 3.0 K 0 % 0 % 0 % 0 m²/s² 0 0 3.03 80
19:00 54 J/kg 3.9 K 0 % 0 % 0 % 0 m²/s² 0 0 3.99 80
20:00 55 J/kg 4.7 K 0 % 0 % 0 % 0 m²/s² 0 0 9.86 80
21:00 73 J/kg 4.9 K 0 % 0 % 0 % 0 m²/s² 0 0 9.43 2
22:00 100 J/kg 4.6 K 0 % 0 % 0 % 0 m²/s² 0 0 9.85 2
23:00 116 J/kg 4.2 K 0 % 0 % 0 % 0 m²/s² 0 0 11.88 2
 07:22     19:31    Daglengte: 12:09 Zondag 22 Sep
00:00 127 J/kg 3.8 K 0 % 0 % 0 % 0 m²/s² 0 0 11.18 2
01:00 105 J/kg 4.1 K 0 % 0 % 0 % 0 m²/s² 0 0 10.19 80
02:00 94 J/kg 4.0 K 0 % 0 % 0 % 0 m²/s² 0 0 9.76 80
03:00 74 J/kg 3.9 K 0 % 0 % 0 % 0 m²/s² 0 0 9.81 80
04:00 70 J/kg 4.0 K 0 % 0 % 0 % 0 m²/s² 0 0 11.08 2
05:00 76 J/kg 3.9 K 0 % 0 % 0 % 0 m²/s² 0 0 11.76 2
06:00 131 J/kg 3.9 K 0 % 0 % 0 % 0 m²/s² 0 0 11.79 2
07:00 160 J/kg 4.5 K 0 % 0 % 0 % 0 m²/s² 0 0 12.39 2
08:00 170 J/kg 5.3 K 0 % 0 % 0 % 0 m²/s² 0 0 12.41 3
09:00 168 J/kg 6.0 K 0 % 0 % 0 % 0 m²/s² 0 0 12.66 3
10:00 149 J/kg 6.8 K 0 % 0 % 0 % 0 m²/s² 0 0 13.28 80
11:00 123 J/kg 7.8 K 0 % 0 % 0 % 0 m²/s² 0 0 14.07 80
12:00 98 J/kg 8.1 K 0 % 0 % 0 % 0 m²/s² 0 0 14.4 80
13:00 68 J/kg 8.4 K 0 % 0 % 0 % 0 m²/s² 0 0 15.57 80
14:00 52 J/kg 8.7 K 0 % 0 % 0 % 0 m²/s² 0 0 16.71 80
15:00 28 J/kg 9.3 K 0 % 0 % 0 % 0 m²/s² 0 0 17.67 80
16:00 18 J/kg 9.6 K 0 % 0 % 0 % 0 m²/s² 0 0 17.4 80
17:00 9 J/kg 9.7 K 0 % 0 % 0 % 0 m²/s² 0 0 16.57 80
18:00 9 J/kg 9.9 K 0 % 0 % 0 % 0 m²/s² 0 0 16.2 80
19:00 9 J/kg 9.9 K 0 % 0 % 0 % 0 m²/s² 0 0 15.72 2
20:00 10 J/kg 10.1 K 0 % 0 % 0 % 0 m²/s² 0 0 15.62 3
21:00 1 J/kg 10.3 K 0 % 0 % 0 % 0 m²/s² 0 0 15.55 3
22:00 1 J/kg 10.8 K 0 % 0 % 0 % 0 m²/s² 0 0 15.57 3
23:00 1 J/kg 11.0 K 0 % 0 % 0 % 0 m²/s² 0 0 14.99 3
 07:23     19:29    Daglengte: 12:06 Maandag 23 Sep
00:00 1 J/kg 11.3 K 0 % 0 % 0 % 0 m²/s² 0 0 15.29 3
01:00 5 J/kg 11.7 K 0 % 0 % 0 % 0 m²/s² 0 0 15.3 3
02:00 18 J/kg 11.8 K 0 % 0 % 0 % 0 m²/s² 0 0 13.81 3
03:00 18 J/kg 12.1 K 0 % 0 % 0 % 0 m²/s² 0 0 13.27 3
04:00 8 J/kg 12.4 K 0 % 0 % 0 % 0 m²/s² 0 0 13.57 3
05:00 4 J/kg 12.3 K 0 % 0 % 0 % 0 m²/s² 0 0 13.23 61
06:00 0 J/kg 12.2 K 0 % 0 % 0 % 0 m²/s² 0 0 12.8 3
07:00 0 J/kg 12.0 K 0 % 0 % 0 % 0 m²/s² 0 0 12.39 3
08:00 0 J/kg 12.3 K 0 % 0 % 0 % 0 m²/s² 0 0 12.9 61
09:00 0 J/kg 12.3 K 0 % 0 % 0 % 0 m²/s² 0 0 13.02 61
10:00 0 J/kg 11.5 K 0 % 0 % 0 % 0 m²/s² 0 0 12.37 61
11:00 2 J/kg 10.9 K 0 % 0 % 0 % 0 m²/s² 0 0 11.29 61
12:00 2 J/kg 10.0 K 0 % 0 % 0 % 0 m²/s² 0 0 10.63 61
13:00 2 J/kg 9.3 K 0 % 0 % 0 % 0 m²/s² 0 0 10.23 61
14:00 0 J/kg 8.5 K 0 % 0 % 0 % 0 m²/s² 0 0 9.49
15:00 0 J/kg 5.7 K 0 % 0 % 0 % 0 m²/s² 0 0 6.57
Temp Baro Wind Neerslag
  EWN Forecast EWN WRFDA DWD ICON FMI HIRLAM MET Norway GFS
 07:20     19:34    Daglengte: 12:14 Vandaag
16:00 21.4° 1012.3 hPa 3.4 m/s 0.0 mm 22.6° 1011.7 hPa 4.3 m/s 0.0 mm 22.2° 1011.4 hPa 3.6 m/s -2.0 mm 18.5° 1012.8 hPa 1.5 m/s 0.0 mm 21.6° 1012.4 hPa 3.8 m/s 0.0 mm 23.1° 1011.6 hPa 3.5 m/s
19:00 19.7° 1011.7 hPa 1.6 m/s 0.0 mm 21.1° 1010.9 hPa 3.1 m/s 0.0 mm 19.3° 1011.3 hPa 1.0 m/s 0.0 mm 18.6° 1011.8 hPa 1.5 m/s 0.0 mm 19.9° 1011.7 hPa 1.9 m/s 0.0 mm 19.3° 1010.8 hPa 1.9 m/s
22:00 17.5° 1011.6 hPa 1.1 m/s 0.0 mm 18.3° 1010.7 hPa 1.7 m/s 0.0 mm 17.6° 1010.6 hPa 1.0 m/s 0.0 mm 16.1° 1011.6 hPa 1.0 m/s 0.0 mm 17.6° 1011.9 hPa 1.3 m/s 0.0 mm 16.0° 1010.8 hPa 0.8 m/s
 07:21     19:33    Daglengte: 12:12 Morgen
01:00 16.9° 1010.3 hPa 1.8 m/s 0.0 mm 18.2° 1010.5 hPa 4.4 m/s 0.0 mm 17.2° 1009.0 hPa 1.2 m/s 0.0 mm 15.8° 1009.9 hPa 2.1 m/s 0.0 mm 16.6° 1010.7 hPa 1.6 m/s 0.0 mm 17.1° 1010.1 hPa 1.6 m/s
04:00 18.3° 1008.7 hPa 3.2 m/s 0.6 mm 18.3° 1009.0 hPa 4.0 m/s 1.0 mm 18.4° 1007.9 hPa 1.9 m/s 0.5 mm 18.0° 1008.2 hPa 3.4 m/s 0.0 mm 18.4° 1008.8 hPa 3.3 m/s 0.0 mm 17.4° 1008.8 hPa 1.8 m/s
07:00 17.8° 1008.0 hPa 3.1 m/s 3.4 mm 18.1° 1008.4 hPa 3.5 m/s 4.3 mm 17.8° 1007.0 hPa 2.8 m/s 6.4 mm 17.1° 1007.4 hPa 3.1 m/s 0.0 mm 17.8° 1008.0 hPa 3.3 m/s 3.6 mm 17.2° 1008.0 hPa 2.1 m/s
10:00 18.0° 1008.3 hPa 3.4 m/s 6.9 mm 18.8° 1008.7 hPa 4.5 m/s 6.7 mm 17.9° 1007.3 hPa 2.1 m/s 5.6 mm 17.9° 1007.6 hPa 3.5 m/s 0.0 mm 18.3° 1008.3 hPa 4.0 m/s 6.3 mm 17.2° 1008.4 hPa 2.4 m/s
13:00 18.5° 1007.9 hPa 4.4 m/s 4.2 mm 20.4° 1007.8 hPa 6.0 m/s 8.0 mm 18.3° 1007.8 hPa 4.3 m/s 2.8 mm 18.0° 1006.7 hPa 3.6 m/s 0.0 mm 18.9° 1008.0 hPa 5.7 m/s 2.7 mm 17.8° 1008.0 hPa 2.4 m/s
16:00 18.1° 1007.0 hPa 4.7 m/s 7.6 mm 18.1° 1006.9 hPa 6.7 m/s 17.9 mm 19.8° 1007.6 hPa 3.4 m/s 0.6 mm 17.6° 1005.6 hPa 4.4 m/s 0.0 mm 18.0° 1007.0 hPa 6.5 m/s 6.5 mm 17.3° 1007.3 hPa 4.7 m/s
19:00 16.3° 1008.4 hPa 2.1 m/s 9.3 mm 16.8° 1008.2 hPa 4.4 m/s 33.1 mm 17.6° 1008.4 hPa 2.8 m/s 0.9 mm 16.0° 1008.3 hPa 0.9 m/s 0.0 mm 15.3° 1008.2 hPa 1.9 m/s 9.1 mm 15.2° 1007.9 hPa 1.6 m/s
22:00 15.1° 1010.5 hPa 2.1 m/s 5.3 mm 16.3° 1010.1 hPa 3.4 m/s 35.9 mm 16.2° 1009.5 hPa 1.5 m/s 0.3 mm 14.1° 1010.7 hPa 1.0 m/s 0.0 mm 14.5° 1010.6 hPa 2.5 m/s 0.7 mm 14.4° 1010.5 hPa 1.9 m/s
 07:22     19:31    Daglengte: 12:09 Zondag 22 Sep
01:00 15.2° 1011.2 hPa 3.0 m/s 7.1 mm 15.8° 1010.8 hPa 3.6 m/s 36.7 mm 15.7° 1009.9 hPa 2.4 m/s 0.6 mm 13.8° 1011.8 hPa 1.6 m/s 0.0 mm 14.9° 1011.6 hPa 3.6 m/s 1.2 mm 13.6° 1011.3 hPa 2.0 m/s
04:00 14.7° 1012.0 hPa 2.0 m/s 8.6 mm 15.4° 1011.5 hPa 3.4 m/s 37.1 mm 14.9° 1011.1 hPa 1.2 m/s 1.5 mm 14.6° 1012.3 hPa 1.3 m/s 0.0 mm 14.3° 1012.6 hPa 3.4 m/s 1.5 mm 12.7° 1012.5 hPa 1.6 m/s
07:00 14.4° 1013.8 hPa 1.6 m/s 0.0 mm 15.2° 1012.5 hPa 2.5 m/s 37.8 mm 14.3° 1012.9 hPa 1.2 m/s 0.2 mm 15.0° 1014.1 hPa 1.1 m/s 0.0 mm 13.7° 1014.1 hPa 2.0 m/s 0.7 mm 12.5° 1013.7 hPa 1.2 m/s
10:00 15.9° 1015.5 hPa 2.4 m/s 8.2 mm 17.0° 1014.5 hPa 3.7 m/s 38.5 mm 16.1° 1015.2 hPa 2.1 m/s 0.5 mm 15.9° 1016.3 hPa 2.4 m/s 0.5 mm 16.3° 1015.4 hPa 1.7 m/s
13:00 17.9° 1016.4 hPa 3.4 m/s 8.1 mm 19.2° 1015.7 hPa 5.0 m/s 38.8 mm 17.5° 1016.2 hPa 2.7 m/s 0.9 mm 17.9° 1017.2 hPa 3.5 m/s 0.3 mm 19.1° 1016.5 hPa 3.6 m/s
16:00 18.3° 1016.8 hPa 3.5 m/s 5.5 mm 19.3° 1015.4 hPa 4.9 m/s 38.8 mm 17.6° 1016.3 hPa 2.6 m/s 0.7 mm 18.2° 1017.7 hPa 3.5 m/s 0.4 mm 19.5° 1016.1 hPa 4.1 m/s
19:00 16.6° 1017.9 hPa 2.2 m/s 5.5 mm 17.0° 1016.2 hPa 4.2 m/s 38.8 mm 16.3° 1017.8 hPa 1.3 m/s 0.6 mm 16.5° 1018.5 hPa 2.2 m/s 0.5 mm 15.6° 1017.0 hPa 2.2 m/s
22:00 14.7° 1019.4 hPa 1.4 m/s 0.0 mm 15.3° 1018.2 hPa 1.8 m/s 38.8 mm 15.3° 1019.1 hPa 0.8 m/s 0.2 mm 13.6° 1019.6 hPa 1.4 m/s 0.0 mm 13.2° 1019.2 hPa 0.6 m/s
 07:23     19:29    Daglengte: 12:06 Maandag 23 Sep
01:00 14.0° 1019.6 hPa 1.4 m/s 0.0 mm 15.3° 1018.0 hPa 1.7 m/s 38.8 mm 15.1° 1019.3 hPa 0.7 m/s 0.0 mm 13.0° 1020.0 hPa 1.4 m/s 0.0 mm 12.1° 1018.9 hPa 0.9 m/s
04:00 13.9° 1019.0 hPa 1.8 m/s 0.0 mm 15.4° 1017.7 hPa 2.4 m/s 38.9 mm 15.2° 1018.9 hPa 0.7 m/s 0.0 mm 13.1° 1019.1 hPa 1.8 m/s 0.0 mm 12.6° 1018.9 hPa 1.0 m/s
07:00 14.5° 1019.4 hPa 2.0 m/s 0.0 mm 14.6° 1018.8 hPa 2.4 m/s 39.0 mm 15.3° 1019.2 hPa 0.9 m/s 0.1 mm 14.4° 1019.4 hPa 2.2 m/s 0.0 mm 12.2° 1019.3 hPa 1.2 m/s
10:00 16.9° 1019.9 hPa 3.3 m/s 9.5 mm 17.0° 1019.7 hPa 3.8 m/s 39.0 mm 16.2° 1020.2 hPa 1.3 m/s 1.4 mm 17.0° 1019.8 hPa 3.7 m/s 16.6° 1019.4 hPa 1.9 m/s
13:00 19.3° 1020.1 hPa 4.7 m/s 8.9 mm 20.4° 1019.0 hPa 5.6 m/s 39.0 mm 16.9° 1020.2 hPa 1.7 m/s 0.5 mm 19.6° 1020.3 hPa 5.2 m/s 20.6° 1018.9 hPa 3.8 m/s
16:00 18.8° 1019.5 hPa 4.3 m/s 39.0 mm 20.6° 1018.5 hPa 6.0 m/s 39.0 mm 18.5° 1019.6 hPa 4.0 m/s 20.2° 1017.4 hPa 4.1 m/s
19:00 17.6° 1018.9 hPa 3.2 m/s 39.0 mm 19.0° 1018.0 hPa 5.5 m/s 39.0 mm 17.4° 1019.0 hPa 2.8 m/s 17.8° 1017.2 hPa 2.6 m/s
22:00 17.3° 1018.4 hPa 4.3 m/s 21.2 mm 17.4° 1018.4 hPa 4.5 m/s 16.5° 1018.2 hPa 2.1 m/s 21.2 mm
 07:24     19:27    Daglengte: 12:03 Dinsdag 24 Sep
01:00 17.3° 1018.0 hPa 5.2 m/s 22.6 mm 17.4° 1018.1 hPa 5.4 m/s 16.3° 1017.1 hPa 2.6 m/s 22.6 mm
04:00 17.5° 1016.9 hPa 5.3 m/s 27.1 mm 17.5° 1017.0 hPa 5.6 m/s 16.4° 1016.1 hPa 2.4 m/s 27.1 mm
07:00 17.7° 1015.8 hPa 5.4 m/s 31.9 mm 17.7° 1015.8 hPa 5.7 m/s 17.1° 1015.8 hPa 2.2 m/s 31.9 mm
10:00 18.9° 1016.6 hPa 4.4 m/s 32.8 mm 18.9° 1016.5 hPa 4.5 m/s 18.9° 1017.1 hPa 2.3 m/s 32.8 mm
13:00 20.2° 1017.3 hPa 3.5 m/s 34.1 mm 20.2° 1017.3 hPa 3.4 m/s 20.7° 1017.8 hPa 4.3 m/s 34.1 mm
16:00 18.7° 1017.6 hPa 3.2 m/s 34.5 mm 18.5° 1017.5 hPa 3.0 m/s 20.6° 1017.6 hPa 4.3 m/s 34.5 mm
19:00 16.8° 1017.8 hPa 2.7 m/s 34.5 mm 16.8° 1017.8 hPa 2.7 m/s 16.7° 1018.3 hPa 2.3 m/s 34.5 mm
22:00 14.7° 1018.5 hPa 1.9 m/s 34.5 mm 14.9° 1018.3 hPa 2.0 m/s 12.9° 1020.4 hPa 0.9 m/s 34.5 mm
 07:25     19:26    Daglengte: 12:01 Woensdag 25 Sep
01:00 12.9° 1018.9 hPa 1.2 m/s 34.5 mm 13.0° 1018.8 hPa 1.3 m/s 12.1° 1020.0 hPa 0.2 m/s 34.5 mm
04:00 12.8° 1018.8 hPa 0.9 m/s 34.5 mm 12.9° 1018.7 hPa 0.9 m/s 11.6° 1019.5 hPa 0.8 m/s 34.5 mm
07:00 12.8° 1018.7 hPa 0.6 m/s 34.5 mm 12.9° 1018.6 hPa 0.6 m/s 11.4° 1019.6 hPa 0.6 m/s 34.5 mm
10:00 15.6° 1019.2 hPa 1.6 m/s 34.5 mm 15.6° 1019.1 hPa 1.6 m/s 16.4° 1020.2 hPa 0.8 m/s 34.5 mm
13:00 18.3° 1019.6 hPa 2.7 m/s 34.5 mm 18.2° 1019.6 hPa 2.7 m/s 19.4° 1020.0 hPa 2.1 m/s 34.5 mm
16:00 17.6° 1019.1 hPa 2.5 m/s 34.5 mm 17.3° 1019.2 hPa 2.5 m/s 20.4° 1018.1 hPa 3.6 m/s 34.5 mm
19:00 16.4° 1018.7 hPa 2.2 m/s 34.5 mm 16.4° 1018.8 hPa 2.2 m/s 16.1° 1018.1 hPa 2.5 m/s 34.5 mm
22:00 14.6° 1019.1 hPa 1.2 m/s 34.5 mm 14.8° 1019.1 hPa 1.2 m/s 12.8° 1019.4 hPa 0.9 m/s 34.5 mm
 07:26     19:24    Daglengte: 11:58 Donderdag 26 Sep
01:00 13.1° 1019.3 hPa 0.3 m/s 34.5 mm 13.2° 1019.4 hPa 0.3 m/s 12.1° 1018.6 hPa 0.8 m/s 34.5 mm
04:00 12.5° 1019.1 hPa 0.9 m/s 34.5 mm 12.6° 1019.2 hPa 0.9 m/s 11.6° 1018.2 hPa 0.6 m/s 34.5 mm
07:00 11.9° 1018.9 hPa 1.5 m/s 34.5 mm 11.9° 1019.0 hPa 1.5 m/s 11.4° 1018.2 hPa 0.9 m/s 34.5 mm
10:00 15.7° 1019.2 hPa 1.6 m/s 34.5 mm 15.6° 1019.2 hPa 1.6 m/s 17.7° 1018.8 hPa 0.6 m/s 34.5 mm
13:00 19.4° 1019.4 hPa 1.9 m/s 34.5 mm 19.2° 1019.5 hPa 1.8 m/s 21.6° 1018.8 hPa 2.9 m/s 34.5 mm
16:00 18.3° 1018.9 hPa 2.0 m/s 34.5 mm 18.1° 1019.1 hPa 1.8 m/s 20.6° 1017.2 hPa 4.4 m/s 34.5 mm
19:00 17.0° 1018.6 hPa 1.8 m/s 34.5 mm 17.0° 1018.7 hPa 1.7 m/s 16.8° 1017.5 hPa 2.4 m/s 34.5 mm
22:00 15.6° 1019.1 hPa 1.7 m/s 34.5 mm 15.8° 1019.1 hPa 1.8 m/s 13.0° 1019.3 hPa 0.8 m/s 34.5 mm
 07:27     19:22    Daglengte: 11:55 Vrijdag 27 Sep
01:00 14.4° 1019.5 hPa 1.7 m/s 34.5 mm 14.6° 1019.5 hPa 1.8 m/s 12.6° 1019.2 hPa 0.9 m/s 34.5 mm
04:00 14.7° 1019.2 hPa 1.8 m/s 34.5 mm 14.9° 1019.1 hPa 1.9 m/s 12.4° 1019.2 hPa 0.9 m/s 34.5 mm
07:00 15.0° 1018.8 hPa 1.9 m/s 34.5 mm 15.2° 1018.8 hPa 2.0 m/s 13.1° 1019.4 hPa 0.7 m/s 34.5 mm
10:00 17.0° 1019.2 hPa 2.2 m/s 34.5 mm 16.9° 1019.1 hPa 2.4 m/s 17.6° 1019.9 hPa 0.9 m/s 34.5 mm
13:00 18.9° 1019.5 hPa 2.6 m/s 34.5 mm 18.6° 1019.5 hPa 2.7 m/s 22.2° 1019.9 hPa 2.0 m/s 34.5 mm
19:00 16.8° 1019.4 hPa 1.7 m/s 34.5 mm 16.9° 1019.5 hPa 1.7 m/s 16.0° 1018.7 hPa 1.9 m/s 34.5 mm
 07:28     19:21    Daglengte: 11:53 Zaterdag 28 Sep
01:00 12.1° 1020.8 hPa 1.4 m/s 34.5 mm 12.2° 1020.9 hPa 1.4 m/s 11.5° 1019.9 hPa 1.1 m/s 34.5 mm
07:00 10.4° 1020.0 hPa 0.7 m/s 34.5 mm 10.4° 1020.1 hPa 0.7 m/s 10.4° 1019.2 hPa 1.2 m/s 34.5 mm
13:00 18.2° 1020.3 hPa 1.8 m/s 34.5 mm 17.9° 1020.4 hPa 1.9 m/s 21.0° 1019.0 hPa 1.1 m/s 34.5 mm
19:00 15.3° 1019.2 hPa 1.3 m/s 34.5 mm 15.2° 1019.3 hPa 1.3 m/s 16.7° 1017.7 hPa 1.7 m/s 34.5 mm
 07:29     19:19    Daglengte: 11:50 Zondag 29 Sep
01:00 10.1° 1018.9 hPa 1.0 m/s 34.5 mm 10.0° 1018.9 hPa 1.0 m/s 11.7° 1019.3 hPa 1.5 m/s 34.5 mm
07:00 10.6° 1018.0 hPa 1.8 m/s 34.5 mm 10.6° 1017.9 hPa 1.9 m/s 10.9° 1019.6 hPa 1.3 m/s 34.5 mm
13:00 19.9° 1017.7 hPa 1.8 m/s 34.5 mm 19.4° 1017.4 hPa 1.9 m/s 25.2° 1020.5 hPa 0.8 m/s 34.5 mm
19:00 16.6° 1016.2 hPa 1.5 m/s 34.5 mm 16.4° 1016.0 hPa 1.5 m/s 19.4° 1018.9 hPa 1.4 m/s 34.5 mm
 07:31     19:17    Daglengte: 11:46 Maandag 30 Sep
01:00 15.9° 1016.4 hPa 2.5 m/s 34.5 mm 15.9° 1016.1 hPa 2.6 m/s 15.5° 1020.2 hPa 1.6 m/s 34.5 mm
07:00 14.3° 1019.9 hPa 1.8 m/s 34.5 mm 14.3° 1019.9 hPa 1.8 m/s 34.5 mm
13:00 17.6° 1019.0 hPa 1.3 m/s 0.8 mm
19:00 15.9° 1018.4 hPa 2.0 m/s 0.8 mm
 07:32     19:15    Daglengte: 11:43 Dinsdag 01 Okt
01:00 14.0° 1019.9 hPa 1.1 m/s 0.7 mm
07:00 13.4° 1019.5 hPa 1.1 m/s 0.3 mm
13:00 18.9° 1020.4 hPa 1.3 m/s 0.4 mm
19:00 16.7° 1019.4 hPa 2.8 m/s 0.3 mm
 07:33     19:14    Daglengte: 11:41 Woensdag 02 Okt
01:00 14.5° 1020.4 hPa 1.6 m/s 0.0 mm
07:00 13.7° 1019.6 hPa 1.7 m/s 0.5 mm
13:00 19.7° 1020.0 hPa 0.9 m/s 0.0 mm
19:00 17.3° 1018.6 hPa 2.5 m/s 0.0 mm
 07:34     19:12    Daglengte: 11:38 Donderdag 03 Okt
01:00 14.7° 1019.4 hPa 1.6 m/s 0.0 mm
07:00 13.8° 1018.4 hPa 1.7 m/s 0.0 mm
13:00 20.0° 1018.5 hPa 0.3 m/s 0.0 mm
19:00 17.2° 1017.1 hPa 2.2 m/s 0.2 mm
 07:35     19:10    Daglengte: 11:35 Vrijdag 04 Okt
01:00 14.7° 1018.1 hPa 1.4 m/s 0.0 mm
07:00 14.2° 1017.4 hPa 1.8 m/s 0.2 mm
13:00 19.3° 1017.8 hPa 0.3 m/s 0.8 mm
19:00 17.1° 1016.4 hPa 2.2 m/s 0.4 mm
 07:36     19:09    Daglengte: 11:33 Zaterdag 05 Okt
01:00 15.1° 1017.1 hPa 1.4 m/s 0.5 mm
07:00 14.2° 1016.1 hPa 1.5 m/s 0.5 mm
13:00 19.5° 1016.3 hPa 0.5 m/s 0.6 mm
FMI Hirlam - 7.5 km EWN WRFDA - 12 km DWD ICON - 7 km GFS - 25 km Basiskaart






























































Updatetijd (Europe/Amsterdam) Resolutie Lengte Stap
FMI Hirlam 13:00, 19:00, 01:00, 07:00 7.5 km 49h 1h
EWN WRFDA 15:45, 21:45, 03:45, 09:45 12 km 73h 1h
DWD ICON 11:45, 17:45, 23:45, 05:45 7 km 75h 1h
GFS 14:30, 20:30, 02:30, 08:30 25 km 237h 3h
30+ mm
25-30 mm
20-25 mm
15-20 mm
10-15 mm
6-10 mm
4-6 mm
2-4 mm
1-2 mm
0.5-1 mm
0.2-0.5 mm
0.1-0.2 mm
30+ mm
25-30 mm
20-25 mm
15-20 mm
10-15 mm
6-10 mm
4-6 mm
2-4 mm
1-2 mm
0.5-1 mm
0.2-0.5 mm
0.1-0.2 mm
Sneeuwval
Natte sneeuw
Hagel
Vorst
30+ mm
25-30 mm
20-25 mm
15-20 mm
10-15 mm
6-10 mm
4-6 mm
2-4 mm
1-2 mm
0.5-1 mm
0.2-0.5 mm
0.1-0.2 mm
Sneeuwval
Natte sneeuw
Hagel
Vorst
Onweer
50 mm
40 mm
30 mm
26 mm
22 mm
18 mm
14 mm
10 mm
9 mm
8 mm
7 mm
6 mm
5 mm
4.5 mm
4 mm
3.5 mm
3 mm
2.5 mm
2 mm
1.5 mm
1 mm
0.8 mm
0.6 mm
0.4 mm
0.2 mm
0.05 mm
35°
30°
25°
20°
15°
10°
-5°
-10°
-15°
-20°
-25°
-30°
-35°
33> m/s
29 m/s
25 m/s
21 m/s
17 m/s
14 m/s
11 m/s
8 m/s
5 m/s
3 m/s
0 m/s
2600 J/kg
2400 J/kg
2200 J/kg
2000 J/kg
1800 J/kg
1600 J/kg
1400 J/kg
1200 J/kg
1000 J/kg
800 J/kg
600 J/kg
400 J/kg
200 J/kg
70 dBZ
65 dBZ
60 dBZ
55 dBZ
50 dBZ
45 dBZ
40 dBZ
35 dBZ
30 dBZ
25 dBZ
20 dBZ
15 dBZ
10 dBZ
5 dBZ
-1 K
-2 K
-3 K
-4 K
-5 K
-6 K
-7 K
-8 K
-9 K
950 m²/s²
900 m²/s²
850 m²/s²
800 m²/s²
750 m²/s²
700 m²/s²
650 m²/s²
600 m²/s²
550 m²/s²
500 m²/s²
450 m²/s²
400 m²/s²
350 m²/s²
300 m²/s²
250 m²/s²
200 m²/s²
150 m²/s²
100 m²/s²
46 m/s
44 m/s
42 m/s
40 m/s
38 m/s
36 m/s
34 m/s
32 m/s
30 m/s
28 m/s
26 m/s
24 m/s
22 m/s
20 m/s
16 m/s
12 m/s
8 m/s
4 m/s
30 m/s
28 m/s
26 m/s
24 m/s
22 m/s
20 m/s
18 m/s
16 m/s
14 m/s
12 m/s
10 m/s
8 m/s
6 m/s
4 m/s
2 m/s
3.0
2.8
2.6
2.4
2.2
2.0
1.8
1.6
1.4
1.2
1.0
0.8
0.6
0.4
0.2
15
14
13
12
11
10
9
8
7
6
5
4
3
2
1
90%
80%
70%
60%
50%
40%
30%
20%
10%
42
40
38
36
34
32
30
28
26
24
22
20
18
16
14
12
90+ cm
80-90 cm
70-80 cm
60-70 cm
50-60 cm
40-50 cm
30-40 cm
20-30 cm
10-20 cm
1-10 cm
Sneeuwval
Natte sneeuw
Regen
>120 mm
115 mm
110 mm
105 mm
100 mm
95 mm
90 mm
85 mm
80 mm
75 mm
70 mm
65 mm
60 mm
55 mm
50 mm
45 mm
45 mm
40 mm
35 mm
30 mm
25 mm
20 mm
15 mm
10 mm
5 mm
0.1 mm
960 hPa
880 hPa
800 hPa
720 hPa
640 hPa
560 hPa
584 gpdm
568 gpdm
552 gpdm
536 gpdm
520 gpdm
504 gpdm
488 gpdm
Extreem zwaar Noodweer Kans op onweer
15% 15% 5% 50% 15%

Dag




Kaart






35°
30°
25°
20°
15°
10°